TimeEDT,TemperatureF,Dew PointF,Humidity,Sea Level PressureIn,VisibilityMPH,Wind Direction,Wind SpeedMPH,Gust SpeedMPH,PrecipitationIn,Events,Conditions,WindDirDegrees,DateUTC
12:53 AM,43.0,34.0,71,29.86,10.0,NW,11.5,-,N/A,,Clear,320,2013-04-01 04:53:00
1:53 AM,39.9,32.0,73,29.89,10.0,NNW,10.4,-,N/A,,Scattered Clouds,330,2013-04-01 05:53:00
2:53 AM,37.9,28.9,70,29.89,10.0,NW,10.4,-,N/A,,Mostly Cloudy,310,2013-04-01 06:53:00
3:53 AM,37.0,28.0,70,29.90,10.0,NW,12.7,-,N/A,,Mostly Cloudy,310,2013-04-01 07:53:00
4:53 AM,36.0,28.0,73,29.91,10.0,NW,11.5,-,N/A,,Mostly Cloudy,310,2013-04-01 08:53:00
5:53 AM,36.0,28.0,73,29.95,10.0,NW,10.4,-,N/A,,Overcast,310,2013-04-01 09:53:00
6:53 AM,36.0,27.0,70,29.98,10.0,NW,12.7,-,N/A,,Overcast,310,2013-04-01 10:53:00
7:53 AM,34.0,27.0,75,30.01,10.0,NW,10.4,-,N/A,,Partly Cloudy,310,2013-04-01 11:53:00
8:53 AM,35.1,27.0,72,30.04,10.0,NW,6.9,-,N/A,,Partly Cloudy,320,2013-04-01 12:53:00
9:53 AM,36.0,25.0,64,30.06,10.0,NNW,9.2,-,N/A,,Partly Cloudy,330,2013-04-01 13:53:00
10:21 AM,37.4,24.8,60,30.06,10.0,NNW,11.5,-,N/A,,Mostly Cloudy,340,2013-04-01 14:21:00
10:44 AM,37.4,24.8,60,30.06,10.0,NW,11.5,-,N/A,,Mostly Cloudy,320,2013-04-01 14:44:00
10:53 AM,37.9,25.0,60,30.08,10.0,North,9.2,-,N/A,,Scattered Clouds,350,2013-04-01 14:53:00
11:53 AM,39.0,21.9,50,30.09,10.0,NNW,8.1,18.4,N/A,,Mostly Cloudy,330,2013-04-01 15:53:00
12:53 PM,39.9,19.9,45,30.11,10.0,NW,11.5,-,N/A,,Mostly Cloudy,310,2013-04-01 16:53:00
2:53 PM,42.1,19.9,41,30.10,10.0,NW,16.1,21.9,N/A,,Partly Cloudy,310,2013-04-01 18:53:00
3:53 PM,42.1,19.9,41,30.10,10.0,WNW,12.7,21.9,N/A,,Scattered Clouds,300,2013-04-01 19:53:00
4:53 PM,43.0,18.0,37,30.10,10.0,NW,15.0,20.7,N/A,,Partly Cloudy,310,2013-04-01 20:53:00
5:53 PM,43.0,18.0,37,30.10,10.0,WNW,16.1,-,N/A,,Clear,300,2013-04-01 21:53:00
6:53 PM,42.1,17.1,37,30.11,10.0,WNW,15.0,-,N/A,,Partly Cloudy,300,2013-04-01 22:53:00
7:53 PM,39.9,15.1,36,30.12,10.0,WNW,12.7,-,N/A,,Clear,300,2013-04-01 23:53:00
8:53 PM,37.9,18.0,45,30.13,10.0,WNW,9.2,-,N/A,,Clear,300,2013-04-02 00:53:00
9:53 PM,36.0,19.0,50,30.15,10.0,NW,10.4,-,N/A,,Clear,310,2013-04-02 01:53:00
10:53 PM,34.0,19.0,54,30.17,10.0,NW,9.2,-,N/A,,Clear,310,2013-04-02 02:53:00
11:53 PM,32.0,19.9,61,30.17,10.0,NW,5.8,-,N/A,,Clear,310,2013-04-02 03:53:00